Simultaneous Nadir Overpasses (SNOs) Predictions

Prediction of SNOs between GOES-16 and TERRA Satellite Orbit:

Table of predicted SNOs for the next 14.0 days since TLE Epoch: 4/20/2019
Index Date Time (GOES-16) GOES-16 Lat,Lon TERRA Lat,Lon Distance(km) Time Diff (sec)
1 04/20/2019 15:36:28 -0.01, -75.21 0.29, -76.79 179.33 80
2 04/22/2019 15:26:57 -0.01, -75.21 -0.32, -73.83 157.37 80
3 04/23/2019 03:48:20 0.01, -75.20 -0.80, -79.02 434.70 80
4 04/24/2019 15:14:46 -0.00, -75.22 -0.93, -70.88 494.46 80
5 04/25/2019 03:36:09 0.00, -75.21 -0.19, -76.07 97.49 80
6 04/27/2019 03:21:19 -0.00, -75.23 0.42, -73.11 240.30 80
7 04/27/2019 15:42:34 0.00, -75.25 0.67, -78.27 343.74 80
8 04/29/2019 15:30:24 0.00, -75.28 0.00, -75.32 5.29 80
9 05/01/2019 15:20:53 0.00, -75.31 -0.60, -72.37 334.04 80
10 05/02/2019 03:42:18 -0.00, -75.30 -0.46, -77.57 257.19 80




NCC Satellite Simultaneous Nadir Overpasses (SNOs) Prediction Service
